Weather in Batrak

Russia / Penza Oblast     53°10′44″N   43°56′51″E
temp.,
°C
wind,
m/s
gust,
m/s
humid.,
%
clouds,
%
prec.,
mm/h
press.,
hPa
HPBL,
m
28 february, sun
sun2800:00−15nnw489593 0.0 1011205
03:00−16nw389659 0.0 1013154
06:00−17nw389761 0.0 1014161
09:00−15nnw489463 0.0 1014314
12:00−12nnw469096 0.0 1015483
15:00−11nw469098 0.0 1016499
18:00−13nnw239598 0.0 101725
21:00−15nnw239571 0.0 101920
1 march, mon
mon100:00−17nnw229612 0.0 102120
03:00−17nnw22956 0.0 102220
06:00−18nnw23950 0.0 102320
09:00−15nw23950 0.0 102593
12:00−11wnw239060 0.0 1025306
15:00−8w359280 0.0 1024347
18:00−12wsw469666 0.0 102387
21:00−9wsw5119677 0.0 1022248
2 march, tue
tue200:00−5wsw61394100 0.1 1018448
03:00−4wsw81495100 0.4 1014506
06:00−3wsw81595100 0.8 1010596
09:000wsw81497100 2.2 1006840
12:000wnw71298100 1.3 1004687
15:000nw71293100 2.1 1004701
18:00−1nw6139078 0.1 1005596
21:00−3wnw5119582 0.3 1006401
3 march, wed
wed300:00−3nw61294100 0.6 1006541
03:00−4nw5119598 0.8 1007433
06:00−5nw5119595 0.3 1007434
09:00−4nw6129395 0.4 1009691
12:00−4nw81189100 0.2 1010805
15:00−4nw81189100 0.4 1012973
18:00−6nw6139199 0.1 1013619
21:00−8nw4119499 0.1 1016310
4 march, thu
thu400:00−10nw489647 0.0 1017140
03:00−11w349654 0.0 101868
06:00−11wsw479765 0.0 1018127
09:00−7wsw5119473 0.1 1017319
12:00−3wsw8139088 0.0 1015622
15:00−1wsw8148792 0.0 1013714
18:00−3sw81687100 0.0 1011579
21:00−3sw8188586 0.0 1010624